Wind_Speed
25 24 21 22 22 23 21 19 18 15 13 7 9 8 9 13 12 13 12 16 8 11 12 12 9 9 14 16 15 17 14 15 14 15 9 5 1 3 7 4 10 7 12
26 24 24 22 22 23 24 24 21 21 17 16 13 14 13 14 13 11 12 12 11 13 11 15 13 15 12 13 14 17 16 18 17 14 16 18 11 6 8 9 10 11 15
25 23 24 24 22 22 23 22 23 22 20 19 19 18 16 13 13 14 15 15 14 15 15 17 16 13 14 15 15 18 20 15 12 11 16 19 8 5 8 10 11 10 8
17 23 25 24 24 23 20 21 22 22 21 21 20 19 17 16 15 16 17 16 17 15 14 16 19 14 16 15 15 16 18 19 17 15 18 19 13 12 12 12 13 13 11
19 15 19 21 21 21 21 20 21 20 22 21 21 21 19 18 19 18 17 16 15 14 15 14 19 18 18 17 16 17 17 15 15 15 15 16 16 14 13 14 15 14 16
22 22 16 14 16 15 15 19 19 20 22 22 23 23 22 20 21 20 17 16 15 16 16 16 18 18 19 22 21 22 24 23 19 17 17 15 15 13 14 13 10 13 6
19 19 19 18 15 15 13 14 18 20 21 22 24 24 23 23 22 17 18 20 19 18 19 18 17 19 16 14 16 17 19 21 25 25 19 18 15 11 8 9 9 9 8
2 6 6 6 8 10 10 10 13 17 20 20 22 23 22 21 20 19 19 18 20 21 20 21 20 21 18 17 15 16 16 15 16 10 13 15 10 7 4 6 8 7 6
11 15 5 3 6 6 6 8 7 10 13 16 16 17 18 16 17 17 19 18 21 21 21 19 19 20 20 22 16 13 14 13 15 16 14 13 13 15 14 13 11 13 12
5 7 6 6 4 5 5 7 5 4 3 1 3 2 1 4 7 11 15 12 17 18 16 17 20 20 18 18 16 13 14 14 17 12 10 8 3 6 4 6 8 4 2
6 4 2 6 12 5 4 3 4 2 3 4 7 8 5 5 6 5 5 6 10 13 13 11 11 9 10 12 11 8 10 7 8 5 9 7 3 2 5 4 3 1 2
4 5 4 7 6 6 6 5 6 7 6 6 6 3 4 5 6 7 6 7 8 8 7 4 6 7 9 8 8 8 6 5 7 10 8 4 4 6 7 9 9 9 5
5 5 4 7 6 4 3 3 3 4 4 5 3 1 1 3 3 4 4 4 7 6 7 4 3 8 5 1 3 3 5 4 6 7 7 7 7 9 10 13 11 12 10
8 9 7 8 9 7 7 6 7 5 4 6 4 3 3 2 2 1 2 5 3 5 7 8 7 7 8 10 9 7 7 6 7 8 9 11 10 10 12 10 12 12 9
8 7 7 7 7 7 7 6 5 4 5 6 5 4 2 5 1 4 6 9 10 11 12 11 11 12 12 10 9 8 8 6 7 10 11 10 10 9 8 9 6 3 3
9 7 5 6 7 6 7 7 8 8 7 6 6 6 6 6 7 8 10 11 11 9 5 6 5 6 7 6 6 7 6 6 8 9 8 8 9 6 4 3 4 4 4
7 5 4 4 5 6 6 6 6 5 5 4 5 5 6 6 5 6 5 5 5 6 4 4 4 5 5 5 5 4 4 5 7 6 7 6 5 4 6 5 5 8 6
7 7 6 6 6 7 7 6 5 4 3 2 3 4 5 6 5 5 6 6 3 3 4 5 5 5 5 5 5 5 7 8 7 6 6 6 6 6 6 5 5 3 4
8 7 6 7 6 6 6 6 6 6 6 6 6 4 4 6 6 5 6 5 5 7 7 7 7 8 7 6 6 7 6 6 6 6 6 6 5 5 3 3 3 2 2
7 7 7 8 7 8 7 5 6 8 9 11 12 8 7 7 6 6 6 5 6 6 4 4 4 4 4 4 5 5 5 5 6 6 6 6 5 5 4 4 4 5 6
9 9 9 11 16 12 7 6 6 5 6 7 7 5 6 6 4 5 5 4 4 5 4 4 4 4 4 5 5 5 5 6 5 4 4 5 3 5 3 3 4 5 6
8 8 9 7 7 5 5 5 6 5 5 6 8 5 6 3 3 3 3 4 4 3 5 4 5 5 5 5 5 6 5 5 5 5 5 4 4 4 3 3 4 4 5
7 9 7 6 6 5 6 5 5 4 5 5 7 9 6 6 4 4 4 4 4 4 5 5 5 5 4 5 5 5 5 5 4 5 4 4 4 3 3 4 4 5 5
8 8 8 8 6 7 7 5 3 2 6 4 5 5 5 5 5 3 3 4 5 6 7 6 6 6 6 6 6 6 5 5 5 5 4 4 4 2 5 3 3 2 6
10 10 9 9 9 9 7 7 7 7 8 6 7 7 7 7 7 7 8 7 7 7 7 6 6 7 8 8 7 5 10 7 6 5 4 3 3 2 6 6 3 6 4
13 10 11 10 10 10 12 12 11 9 9 11 10 9 8 8 8 9 9 10 10 10 8 8 8 8 9 10 10 11 9 10 9 11 6 5 6 8 8 8 8 8 8
Wind_Direction
203 201 204 207 208 208 211 214 227 239 232 216 248 250 252 236 221 231 250 269 259 231 257 284 278 267 272 283 289 289 273 276 283 283 331 19 7 292 267 277 254 244 259
206 200 201 206 211 207 215 218 219 220 227 238 230 232 235 244 240 243 237 254 251 248 250 258 264 264 250 256 278 276 283 290 294 310 293 295 268 255 241 246 258 263 224
202 196 207 197 210 221 208 216 214 217 221 231 222 225 231 235 226 226 227 236 246 260 259 261 273 258 272 269 285 289 288 275 247 251 272 281 270 228 247 248 252 253 255
198 197 208 204 199 217 221 213 216 217 220 224 224 227 225 229 230 232 234 235 241 248 261 257 256 250 263 259 257 268 274 277 281 283 275 279 299 286 271 250 250 247 230
194 207 223 203 208 208 221 219 220 223 219 223 221 220 228 232 235 232 238 245 249 245 249 251 256 251 261 272 265 266 265 272 267 270 274 279 280 279 257 260 255 263 229
202 205 208 219 224 220 229 230 226 226 226 222 224 222 217 231 236 238 235 239 239 242 247 254 258 267 265 264 266 266 258 261 265 267 274 275 276 270 274 271 275 293 275
202 200 185 194 200 212 218 228 236 234 236 229 226 226 224 222 241 243 236 237 248 248 248 250 254 263 273 265 271 275 268 263 258 257 263 268 279 283 290 286 277 274 274
28 234 182 157 185 204 221 234 242 244 236 239 238 234 233 234 242 244 238 236 247 255 259 260 258 265 267 265 269 272 272 279 273 255 246 253 244 216 224 281 277 271 232
51 359 336 186 212 202 214 228 252 252 253 249 249 250 246 246 244 240 239 244 250 249 251 256 258 260 260 263 268 270 266 259 260 250 245 255 265 270 271 279 274 256 244
153 147 288 304 253 221 227 219 215 229 238 315 8 191 176 245 245 251 249 248 253 253 262 263 262 254 252 254 264 273 271 261 248 240 250 267 296 317 314 250 255 300 125
208 212 211 305 266 252 211 211 186 271 263 268 279 271 288 264 285 297 276 260 261 273 265 274 231 260 268 259 257 257 257 269 219 205 152 145 180 24 34 25 355 189 184
255 243 218 218 213 232 243 236 256 277 254 228 232 258 279 282 291 293 268 264 248 249 304 209 239 285 272 261 254 258 250 236 184 173 176 157 92 71 69 77 52 73 53
105 100 129 132 127 150 173 162 164 164 178 141 130 154 333 347 340 344 287 268 268 234 178 174 123 81 53 148 127 81 43 122 156 153 140 133 129 130 122 107 93 76 67
142 130 129 124 121 108 105 109 103 111 129 117 134 137 127 62 7 37 69 89 115 114 117 109 105 102 96 86 74 85 107 96 139 148 149 144 136 139 132 126 109 102 91
138 133 133 132 122 117 99 96 82 99 104 96 101 114 122 131 133 119 123 119 118 115 110 108 114 116 116 114 108 101 98 110 128 139 145 137 138 138 129 122 128 156 236
145 141 169 152 142 126 117 100 108 110 114 118 122 117 112 119 114 107 112 122 121 111 117 119 120 119 118 119 115 102 102 117 131 141 142 151 141 149 171 177 177 200 185
166 158 152 160 159 155 142 144 136 96 88 107 116 129 136 115 117 118 120 124 125 115 120 138 148 148 156 148 140 136 139 137 137 132 149 156 163 172 183 188 221 229 225
160 154 154 154 157 163 170 168 170 167 173 125 116 124 139 137 137 138 136 119 140 157 172 174 171 173 168 155 153 147 142 137 140 154 160 169 174 186 196 219 217 235 229
154 162 175 177 173 179 174 181 181 171 171 159 156 148 144 139 135 151 175 216 214 186 184 188 185 176 171 151 149 149 155 156 157 172 182 191 194 208 237 231 147 204 233
171 177 180 170 174 197 191 166 170 188 187 188 198 145 162 167 180 189 210 213 192 161 158 142 132 140 151 149 158 164 162 167 178 189 191 189 198 232 227 221 249 195 205
157 164 201 197 189 195 176 176 160 164 147 169 135 143 174 254 154 155 165 162 165 141 146 136 144 146 157 171 175 187 186 187 191 196 184 205 199 237 241 252 270 242 287
168 166 196 187 140 181 167 166 177 171 167 178 126 145 187 253 176 183 178 179 177 176 161 168 179 183 174 188 195 201 195 193 193 202 205 211 206 221 226 237 259 264 275
190 182 185 165 172 112 196 207 180 194 182 185 165 151 184 221 173 186 174 210 195 200 200 210 207 211 197 210 207 209 213 193 185 197 196 206 214 226 228 255 262 269 271
190 205 187 192 201 201 204 206 216 269 313 221 207 213 210 206 216 187 238 210 212 218 219 219 226 227 203 216 205 204 193 173 169 181 204 209 205 193 252 259 260 334 300
233 204 216 210 195 211 251 248 255 238 205 221 254 239 232 217 220 222 215 223 227 232 229 235 234 222 223 218 209 186 163 179 168 163 180 210 259 217 268 275 283 310 289
236 219 221 225 224 231 232 231 232 239 241 232 225 237 242 245 241 239 236 235 228 236 243 241 235 232 216 214 218 200 197 203 203 197 212 250 248 249 257 259 282 282 318
Height
797 801 806 811 814 819 821 823 826 828 830 831 835 837 839 840 842 844 845 843 845 845 846 845 846 847 847 844 841 839 838 838 836 835 836 837 837 839 842 842 842 843 839
790 795 800 805 809 812 817 819 823 825 827 830 833 835 837 837 839 841 842 841 841 842 844 844 844 843 843 844 843 841 839 839 839 837 838 836 835 837 839 840 841 839 835
785 789 795 799 804 806 809 814 817 821 823 826 828 830 832 834 835 837 838 838 838 839 839 840 841 841 841 840 841 839 837 835 835 838 838 836 832 834 837 836 837 837 837
778 782 788 791 797 802 804 808 811 815 818 820 822 825 827 829 830 832 833 833 833 834 835 836 836 836 837 838 838 839 838 837 836 836 834 831 830 832 832 832 832 832 833
776 781 782 779 790 796 800 803 806 809 812 815 817 819 822 824 825 826 827 829 830 830 831 832 832 831 832 833 834 834 835 835 834 833 832 831 829 829 828 827 827 827 828
776 779 781 786 790 793 796 800 802 804 806 809 811 812 815 817 817 819 821 823 825 826 827 827 827 827 827 826 827 827 829 830 830 830 828 827 825 825 824 823 824 824 826
774 775 777 782 786 790 794 796 799 800 803 804 805 807 808 810 812 813 815 818 819 820 822 822 823 821 821 821 822 823 822 823 823 824 824 823 822 821 821 822 822 823 824
776 778 775 779 783 786 789 792 795 797 798 800 802 803 804 806 807 809 810 813 814 815 816 816 816 816 816 816 817 818 819 819 817 818 818 818 818 818 818 819 819 820 821
775 772 770 781 782 785 788 790 792 794 796 797 798 800 801 802 801 804 806 808 808 809 809 810 811 811 811 811 812 812 813 813 812 813 814 815 814 814 814 815 816 815 816
777 776 777 780 782 783 786 789 791 793 794 795 797 798 798 799 799 800 801 804 804 803 804 805 805 805 805 806 807 809 809 809 806 808 811 812 812 811 810 811 813 813 814
778 776 775 777 786 784 785 788 790 792 791 792 795 795 797 797 798 799 799 800 802 801 800 801 802 801 803 804 804 805 805 806 806 807 809 810 811 811 811 812 813 813 815
778 779 781 782 783 785 786 786 789 792 792 793 794 795 796 796 796 797 797 798 799 799 800 798 798 801 801 801 802 803 802 802 804 807 808 810 811 812 813 813 815 813 815
780 781 783 783 783 784 787 789 789 790 792 790 792 793 795 795 796 795 795 794 798 796 794 797 797 800 801 802 801 802 804 802 805 807 809 811 812 811 813 813 815 815 818
782 783 784 785 786 788 788 789 789 791 791 790 793 795 795 795 795 795 796 793 797 796 797 796 797 800 803 805 805 804 805 806 808 809 810 812 811 814 813 815 814 817 820
781 783 784 786 786 786 787 789 791 791 792 792 793 795 795 795 798 798 797 795 796 799 799 800 802 802 803 805 806 807 808 810 812 812 815 814 814 817 818 817 818 821 822
781 782 784 784 785 788 789 791 791 792 793 794 794 795 795 796 797 798 798 799 799 800 803 804 806 806 806 808 809 809 809 812 813 813 815 816 816 818 820 820 821 821 818
784 785 786 785 787 788 790 792 794 795 795 795 796 796 797 797 799 799 800 801 801 801 804 806 806 807 808 808 809 809 812 813 813 814 817 818 819 820 821 821 820 818 818
784 785 787 788 789 790 791 791 793 794 795 797 796 797 798 799 799 800 800 801 804 804 805 806 806 807 808 807 809 810 811 811 812 816 817 819 819 819 819 818 817 816 816
785 786 787 788 789 789 791 791 792 794 796 798 799 799 799 799 800 800 801 802 802 803 804 804 805 806 807 808 809 810 811 811 812 815 815 816 817 817 816 815 815 817 817
785 786 787 788 790 789 789 789 792 793 793 794 794 796 799 799 800 801 800 799 798 797 799 801 803 804 806 807 808 810 810 811 813 813 813 814 815 815 814 815 814 814 816
780 786 786 786 785 785 785 785 786 787 788 790 792 796 796 796 794 796 798 799 798 799 801 802 804 804 807 808 808 809 809 810 811 811 812 813 813 812 814 814 814 814 814
778 781 781 779 782 785 784 785 786 786 787 789 792 795 797 795 793 796 797 798 799 800 800 802 803 803 804 806 807 806 807 808 810 811 811 811 812 812 812 812 812 813 813
776 778 778 779 781 784 786 784 784 785 785 787 787 792 795 794 793 795 795 797 798 799 800 801 802 802 804 805 806 806 806 806 807 809 810 811 811 811 811 812 812 812 811
775 776 777 779 782 783 782 783 783 785 785 784 785 787 789 792 792 792 794 796 797 799 800 800 800 801 802 804 805 805 805 806 807 809 810 810 810 812 811 811 810 810 811
772 775 775 777 778 782 781 783 781 781 782 785 784 785 785 786 787 789 792 794 796 797 798 797 797 800 802 803 803 804 804 806 807 809 810 810 810 811 811 809 809 810 810
771 771 773 774 775 776 776 777 777 778 778 779 781 782 783 784 785 787 789 790 791 792 793 793 795 798 799 801 802 802 804 806 808 809 809 809 810 811 810 808 808 809 810